| time (UTC) | temp F | wind direction | speed knots | gust knots | rain 1hr in | rain 24hr in | rain mn in | humidity % | barometer mb |
| 20260902201530 | 72 | 77 | 0.0 | 0.0 | 0.00 | 0.62 | 0.13 | 97 | 1017.7 |
| 20260902200025 | 72 | 77 | 0.0 | 0.9 | 0.00 | 0.62 | 0.13 | 97 | 1018.1 |
| 20260902194523 | 72 | 350 | 0.0 | 2.6 | 0.00 | 0.62 | 0.13 | 97 | 1018.0 |
| 20260902193024 | 72 | 244 | 0.0 | 0.9 | 0.01 | 0.62 | 0.13 | 97 | 1017.5 |
| 20260902191523 | 72 | 275 | 0.0 | 0.9 | 0.01 | 0.62 | 0.13 | 97 | 1017.8 |
| 20260902190022 | 72 | 200 | 0.0 | 2.6 | 0.01 | 0.62 | 0.13 | 97 | 1017.7 |
| 20260902184522 | 72 | 226 | 0.0 | 0.0 | 0.02 | 0.62 | 0.13 | 98 | 1017.9 |
| 20260902183020 | 71 | 228 | 0.0 | 0.0 | 0.03 | 0.61 | 0.12 | 98 | 1018.4 |
| 20260902181520 | 71 | 228 | 0.0 | 0.0 | 0.06 | 0.61 | 0.12 | 98 | 1018.7 |
| 20260902180019 | 71 | 228 | 0.0 | 0.0 | 0.09 | 0.61 | 0.12 | 98 | 1018.7 |
| 20260902174517 | 70 | 228 | 0.0 | 0.9 | 0.08 | 0.60 | 0.11 | 97 | 1019.3 |
| 20260902173016 | 70 | 227 | 0.0 | 0.9 | 0.06 | 0.57 | 0.09 | 97 | 1019.0 |
| 20260902171515 | 70 | 220 | 0.0 | 0.9 | 0.03 | 0.55 | 0.06 | 97 | 1019.0 |
| 20260902170014 | 71 | 96 | 0.0 | 0.0 | 0.00 | 0.52 | 0.03 | 97 | 1019.5 |
| 20260902164518 | 71 | 96 | 0.0 | 0.0 | 0.00 | 0.52 | 0.03 | 97 | 1020.0 |
| 20260902163011 | 71 | 119 | 0.0 | 1.7 | 0.00 | 0.52 | 0.03 | 97 | 1019.7 |
| 20260902161511 | 71 | 92 | 0.0 | 0.9 | 0.00 | 0.52 | 0.03 | 97 | 1019.6 |
| 20260902160010 | 71 | 220 | 0.0 | 0.0 | 0.00 | 0.52 | 0.03 | 98 | 1019.7 |
| 20260902154512 | 71 | 111 | 0.0 | 1.7 | 0.00 | 0.52 | 0.03 | 98 | 1019.1 |
| 20260902153008 | 70 | 150 | 0.0 | 2.6 | 0.00 | 0.52 | 0.03 | 98 | 1019.0 |
| 20260902151508 | 70 | 101 | 0.0 | 2.6 | 0.00 | 0.52 | 0.03 | 98 | 1019.2 |
| 20260902150007 | 70 | 49 | 0.0 | 0.9 | 0.00 | 0.52 | 0.03 | 98 | 1019.2 |
| 20260902144506 | 70 | 11 | 0.0 | 0.9 | 0.00 | 0.52 | 0.03 | 98 | 1019.5 |
| 20260902143006 | 69 | 110 | 0.0 | 2.6 | 0.00 | 0.52 | 0.03 | 98 | 1019.4 |
| 20260902141515 | 69 | 32 | 0.0 | 0.9 | 0.00 | 0.52 | 0.03 | 98 | 1019.6 |
| 20260902140002 | 69 | 88 | 0.0 | 1.7 | 0.00 | 0.52 | 0.03 | 98 | 1019.3 |
| 20260902134502 | 69 | 268 | 0.0 | 1.7 | 0.00 | 0.53 | 0.03 | 98 | 1019.0 |
| 20260902133002 | 69 | 150 | 0.0 | 3.5 | 0.01 | 0.53 | 0.03 | 98 | 1019.0 |
| 20260902131559 | 69 | 309 | 0.0 | 0.9 | 0.01 | 0.53 | 0.03 | 98 | 1018.9 |
| 20260902130058 | 69 | 111 | 0.0 | 1.7 | 0.01 | 0.53 | 0.03 | 98 | 1018.5 |
| 20260902124605 | 69 | 108 | 0.0 | 1.7 | 0.01 | 0.53 | 0.03 | 98 | 1018.6 |
| 20260902123056 | 69 | 144 | 0.0 | 1.7 | 0.00 | 0.52 | 0.02 | 98 | 1018.6 |
| 20260902121602 | 69 | 24 | 0.0 | 0.9 | 0.01 | 0.52 | 0.02 | 98 | 1018.6 |
| 20260902120052 | 69 | 284 | 0.0 | 0.9 | 0.01 | 0.52 | 0.02 | 98 | 1018.4 |
| 20260902114552 | 69 | 283 | 0.0 | 0.9 | 0.01 | 0.52 | 0.02 | 98 | 1018.5 |
| 20260902113050 | 69 | 300 | 0.0 | 0.9 | 0.01 | 0.52 | 0.02 | 98 | 1018.1 |
| 20260902111549 | 69 | 142 | 0.0 | 0.9 | 0.00 | 0.51 | 0.01 | 98 | 1018.2 |
| 20260902110049 | 69 | 242 | 0.0 | 0.0 | 0.00 | 0.51 | 0.01 | 98 | 1018.3 |
| 20260902104551 | 69 | 242 | 0.0 | 1.7 | 0.00 | 0.51 | 0.01 | 98 | 1018.3 |
| 20260902103047 | 69 | 155 | 0.0 | 0.0 | 0.00 | 0.51 | 0.01 | 98 | 1018.2 |
| 20260902101552 | 69 | 130 | 0.0 | 1.7 | 0.00 | 0.51 | 0.01 | 98 | 1017.9 |
| 20260902100044 | 69 | 111 | 0.0 | 2.6 | 0.00 | 0.51 | 0.01 | 98 | 1017.8 |
| 20260902094543 | 70 | 342 | 0.0 | 1.7 | 0.00 | 0.51 | 0.01 | 98 | 1017.7 |
| 20260902093055 | 70 | 329 | 0.0 | 0.9 | 0.01 | 0.51 | 0.01 | 98 | 1017.6 |
| 20260902091550 | 70 | 310 | 0.0 | 1.7 | 0.01 | 0.51 | 0.01 | 98 | 1017.7 |
| 20260902090045 | 71 | 290 | 0.0 | 0.9 | 0.01 | 0.51 | 0.01 | 98 | 1017.5 |
| 20260902084549 | 70 | 178 | 0.0 | 0.0 | 0.01 | 0.51 | 0.01 | 98 | 1017.4 |
| 20260902083047 | 70 | 118 | 0.0 | 0.0 | 0.00 | 0.50 | 0.00 | 98 | 1017.3 |
| 20260902081535 | 70 | 126 | 0.0 | 1.7 | 0.00 | 0.50 | 0.00 | 98 | 1016.9 |
| 20260902080035 | 70 | 257 | 0.0 | 0.9 | 0.00 | 0.50 | 0.00 | 98 | 1016.9 |
| 20260902074534 | 70 | 269 | 0.0 | 0.9 | 0.00 | 0.50 | 0.00 | 98 | 1016.8 |
| 20260902073035 | 69 | 267 | 0.0 | 0.0 | 0.00 | 0.50 | 0.00 | 98 | 1016.9 |
| 20260902071537 | 69 | 267 | 0.0 | 0.0 | 0.00 | 0.50 | 0.00 | 98 | 1016.7 |
| 20260902070033 | 69 | 266 | 0.0 | 0.0 | 0.00 | 0.50 | 0.00 | 98 | 1016.7 |
| 20260902064533 | 69 | 266 | 0.0 | 0.0 | 0.00 | 0.50 | 0.00 | 98 | 1016.8 |
| 20260902063033 | 69 | 267 | 0.0 | 0.0 | 0.00 | 0.50 | 0.00 | 98 | 1016.6 |
| 20260902061543 | 69 | 266 | 0.0 | 0.0 | 0.00 | 0.50 | 0.00 | 98 | 1016.5 |
| 20260902060030 | 69 | 267 | 0.0 | 0.0 | 0.00 | 0.50 | 0.00 | 98 | 1016.7 |
| 20260902054534 | 69 | 267 | 0.0 | 0.0 | 0.00 | 0.50 | 0.00 | 98 | 1016.8 |
| 20260902053030 | 69 | 267 | 0.0 | 0.9 | 0.00 | 0.50 | 0.00 | 98 | 1016.7 |
| 20260902051526 | 69 | 34 | 0.0 | 0.9 | 0.00 | 0.50 | 0.00 | 98 | 1016.4 |
| 20260902050026 | 70 | 34 | 0.0 | 0.0 | 0.00 | 0.50 | 0.00 | 98 | 1016.6 |
| 20260902044524 | 70 | 34 | 0.0 | 0.0 | 0.00 | 0.51 | 0.00 | 98 | 1017.1 |
| 20260902043022 | 70 | 34 | 0.0 | 0.0 | 0.00 | 0.51 | 0.00 | 97 | 1017.0 |
| 20260902041520 | 70 | 75 | 0.0 | 0.9 | 0.00 | 0.51 | 0.00 | 98 | 1016.7 |
| 20260902040017 | 70 | 221 | 0.0 | 0.9 | 0.00 | 0.51 | 0.00 | 97 | 1016.7 |
| 20260902034519 | 70 | 253 | 0.0 | 0.0 | 0.00 | 0.52 | 0.51 | 97 | 1016.5 |
| 20260902033017 | 70 | 254 | 0.0 | 0.9 | 0.00 | 0.52 | 0.51 | 97 | 1016.4 |
| 20260902031516 | 70 | 255 | 0.0 | 1.7 | 0.00 | 0.52 | 0.51 | 97 | 1015.7 |
| 20260902030015 | 70 | 247 | 0.0 | 1.7 | 0.00 | 0.52 | 0.51 | 97 | 1015.5 |
| 20260902024521 | 70 | 257 | 0.0 | 2.6 | 0.00 | 0.52 | 0.51 | 97 | 1015.6 |
| 20260902023015 | 70 | 89 | 0.0 | 0.9 | 0.00 | 0.52 | 0.51 | 97 | 1014.5 |
| 20260902021514 | 71 | 104 | 0.0 | 0.9 | 0.00 | 0.52 | 0.51 | 96 | 1015.0 |
| 20260902020020 | 71 | 109 | 0.0 | 1.7 | 0.00 | 0.52 | 0.51 | 96 | 1015.0 |
| 20260902014514 | 71 | 247 | 0.0 | 2.6 | 0.00 | 0.52 | 0.51 | 96 | 1014.2 |
| 20260902013013 | 71 | 258 | 0.9 | 4.3 | 0.00 | 0.52 | 0.51 | 96 | 1013.9 |
| 20260902011512 | 71 | 233 | 0.0 | 0.0 | 0.00 | 0.52 | 0.51 | 96 | 1013.5 |
| 20260902010017 | 71 | 272 | 0.0 | 1.7 | 0.01 | 0.52 | 0.51 | 95 | 1013.6 |
| 20260902004512 | 71 | 54 | 0.0 | 0.9 | 0.01 | 0.52 | 0.51 | 95 | 1013.8 |
| 20260902003012 | 71 | 239 | 0.0 | 3.5 | 0.27 | 0.52 | 0.51 | 95 | 1013.7 |
| 20260902001511 | 72 | 219 | 0.0 | 0.0 | 0.43 | 0.52 | 0.51 | 93 | 1014.1 |
| 20260902000012 | 72 | 333 | 0.0 | 4.3 | 0.48 | 0.51 | 0.50 | 91 | 1014.7 |
| 20260901234510 | 73 | 280 | 3.5 | 12.2 | 0.48 | 0.51 | 0.50 | 90 | 1014.6 |
| 20260901233013 | 78 | 242 | 7.8 | 13.9 | 0.20 | 0.23 | 0.22 | 81 | 1013.5 |
| 20260901231508 | 81 | 205 | 0.0 | 1.7 | 0.05 | 0.08 | 0.07 | 91 | 1012.6 |
| 20260901230007 | 83 | 216 | 0.0 | 0.0 | 0.00 | 0.03 | 0.02 | 87 | 1012.6 |
| 20260901224506 | 85 | 213 | 0.0 | 0.9 | 0.00 | 0.03 | 0.02 | 84 | 1012.5 |
| 20260901223006 | 87 | 213 | 0.0 | 0.9 | 0.00 | 0.03 | 0.02 | 80 | 1012.4 |
| 20260901221505 | 88 | 233 | 0.0 | 2.6 | 0.00 | 0.03 | 0.02 | 76 | 1012.6 |
| 20260901220002 | 89 | 235 | 0.9 | 2.6 | 0.00 | 0.03 | 0.02 | 73 | 1012.7 |
| 20260901214605 | 89 | 222 | 0.9 | 3.5 | 0.00 | 0.03 | 0.02 | 71 | 1012.4 |
| 20260901213115 | 89 | 266 | 0.9 | 3.5 | 0.00 | 0.03 | 0.02 | 71 | 1012.8 |
| 20260901211558 | 90 | 167 | 0.9 | 4.3 | 0.00 | 0.03 | 0.02 | 69 | 1012.7 |
| 20260901210056 | 89 | 255 | 0.9 | 4.3 | 0.00 | 0.03 | 0.02 | 71 | 1012.6 |
| 20260901204552 | 89 | 227 | 0.9 | 6.1 | 0.00 | 0.03 | 0.02 | 71 | 1012.8 |
| 20260901203051 | 88 | 272 | 1.7 | 6.1 | 0.00 | 0.03 | 0.02 | 71 | 1012.9 |